Wind_Speed
68 68 69 70 71 71 72 72 73 73 74 74 74 74 74 74 74 74 74 75 75 76 77 77 78 79 79 80 81 82 83 84 84 84 84 84 84 83 82 82 81 80 79 79 79 80 81 82 83 85 86 87 87 88 88 88 88 88 89 90 91 91 91 91 91 90 90 90 91 91 92 93 94 94 95 95 96 96 97 98 99 100 100 101 102 102 103 103
67 68 68 69 70 70 71 71 72 72 72 72 72 72 71 71 71 71 71 71 71 72 72 73 74 75 76 77 78 79 80 81 81 81 82 82 83 82 82 81 81 80 79 79 79 79 80 81 81 82 83 84 85 86 86 87 87 88 88 89 90 89 89 89 88 87 87 87 88 89 90 91 92 93 94 95 95 94 94 95 96 97 98 99 100 100 101 102
66 67 67 68 68 69 69 70 70 70 70 69 69 68 68 67 67 67 67 67 67 68 68 69 70 71 72 73 74 75 76 77 77 78 79 80 80 80 80 80 79 79 78 78 78 78 78 79 80 80 81 82 83 83 84 85 86 86 87 88 89 88 87 87 85 85 84 85 85 86 87 88 89 90 92 93 94 93 94 95 95 96 96 97 98 98 99 100
65 66 66 67 67 68 68 68 68 68 67 66 65 65 64 64 63 63 63 64 64 64 65 66 67 67 68 70 71 72 73 73 74 75 76 77 77 78 78 77 77 77 77 77 77 77 77 77 78 78 78 79 80 81 81 83 84 85 86 87 87 86 86 85 83 83 82 82 82 83 84 85 86 87 88 90 91 92 94 94 94 95 95 96 96 97 98 98
64 65 65 66 66 66 66 66 66 65 64 63 62 61 61 61 61 61 61 61 62 63 63 64 65 65 66 67 68 69 70 70 71 72 73 74 74 75 75 75 75 75 75 75 75 75 75 75 76 76 76 76 77 78 78 80 81 83 84 85 84 84 83 82 81 81 81 81 80 80 81 82 83 83 85 86 87 88 90 91 91 92 93 94 95 96 96 96
64 65 65 65 65 65 65 64 63 62 60 59 58 58 58 58 58 59 60 60 61 62 62 63 63 64 65 66 66 67 67 67 68 70 71 72 73 73 73 72 72 72 72 72 73 73 73 73 74 74 74 74 74 75 75 77 78 80 81 82 81 81 80 79 78 78 79 79 79 78 79 80 80 81 82 83 84 84 86 87 87 88 89 90 92 92 92 92
64 65 65 64 64 63 62 61 60 58 57 56 56 56 56 56 57 58 58 59 59 60 60 61 61 62 63 64 64 65 65 65 66 68 69 71 71 71 71 70 70 70 70 70 70 71 71 71 71 71 72 71 72 72 73 74 76 77 78 79 78 78 77 76 76 76 77 77 76 76 77 78 78 79 79 79 80 81 81 82 82 83 84 86 86 86 86 86
64 64 63 63 62 60 59 58 56 55 55 54 54 54 54 55 55 56 57 57 58 58 58 59 60 60 61 62 63 63 63 63 65 66 68 69 70 70 70 69 68 68 68 68 68 69 69 69 69 69 69 69 69 70 70 72 73 74 75 75 75 75 75 73 73 74 75 75 75 75 75 76 76 76 76 76 77 77 77 78 78 79 80 81 81 80 80 79
63 62 61 60 59 57 55 54 54 53 52 52 52 52 53 53 54 55 55 55 55 56 56 57 58 59 60 61 62 62 61 62 63 64 66 67 68 69 69 68 67 67 66 66 66 67 67 67 67 67 67 66 67 68 68 69 70 71 73 72 72 73 73 72 72 73 73 73 72 73 73 73 73 73 74 74 75 75 75 75 76 76 76 77 76 76 75 75
61 60 58 57 55 54 52 52 51 51 51 51 51 51 51 52 52 53 53 53 53 54 55 56 57 58 58 59 60 59 59 60 62 63 64 66 67 67 67 67 67 66 66 65 65 65 65 65 65 65 65 65 66 66 66 67 68 70 71 70 71 72 71 70 71 72 72 71 70 70 70 69 70 71 72 72 72 72 72 73 73 73 74 74 73 73 73 72
58 57 55 53 52 51 50 50 50 50 49 49 50 50 50 50 51 51 52 52 52 52 53 54 55 55 56 57 56 56 57 58 60 61 62 64 65 65 66 67 66 66 65 64 64 63 63 63 64 64 64 65 65 66 66 66 67 69 70 69 70 70 70 69 70 71 70 69 68 68 68 67 67 69 69 69 69 69 69 70 70 71 72 72 72 71 71 71
55 53 52 50 49 48 48 48 48 48 48 48 48 49 49 49 49 50 50 50 50 50 51 52 53 53 54 54 53 54 55 56 57 58 60 62 63 64 64 65 66 65 65 64 63 63 63 63 63 64 64 65 65 65 65 65 66 68 68 68 69 69 68 67 68 69 68 67 66 66 66 66 66 67 68 67 67 67 67 68 69 70 70 70 70 70 70 69
52 51 50 48 47 47 47 47 47 47 47 47 47 47 47 47 47 48 48 48 48 48 49 50 51 51 51 51 51 52 52 53 54 56 58 60 61 62 63 64 65 64 64 63 64 64 63 63 63 63 64 64 64 64 63 64 65 66 67 67 67 67 67 66 66 66 65 65 64 64 64 65 65 66 66 66 66 66 67 68 69 69 69 69 69 69 69 68
50 49 48 47 46 46 46 45 46 46 46 46 46 46 46 46 46 46 46 46 46 46 47 48 49 49 49 49 50 50 50 50 52 54 56 58 59 60 61 62 63 63 63 63 64 64 63 63 64 63 63 63 63 62 62 63 64 65 66 66 66 66 65 64 64 64 64 63 63 62 63 64 65 65 65 66 66 67 67 68 69 69 69 68 68 68 67 67
48 47 46 45 45 45 45 45 45 45 45 45 45 45 45 45 45 44 44 44 44 44 45 46 47 47 47 47 48 48 48 49 50 52 54 56 57 58 59 60 60 61 62 63 64 64 64 64 64 63 63 62 62 62 61 62 63 64 65 65 65 65 64 63 63 63 62 62 61 61 62 64 64 64 66 66 66 67 67 68 68 68 68 68 67 67 67 66
47 46 45 44 44 44 44 44 44 44 44 44 44 44 44 43 43 43 43 43 43 42 43 44 45 45 45 45 46 46 46 47 49 51 53 54 55 56 57 58 58 59 61 62 63 64 64 64 64 63 63 62 61 61 61 61 62 63 64 64 64 64 63 63 62 61 60 60 60 61 62 64 65 65 66 66 66 66 66 67 67 67 67 67 67 66 67 66
46 45 44 44 44 44 44 44 44 44 43 43 43 43 43 42 42 42 42 41 41 41 41 42 43 44 43 44 44 44 44 46 48 49 51 52 53 54 55 55 56 58 59 61 62 63 64 64 64 63 63 62 61 61 60 60 61 62 64 63 63 63 62 62 61 60 59 59 60 61 62 64 65 65 66 66 66 66 65 66 67 67 67 67 66 66 66 64
45 44 44 44 44 43 44 44 44 44 42 42 42 42 42 41 41 40 41 40 40 39 40 41 42 42 42 42 42 43 43 45 46 47 49 50 51 52 53 53 55 56 57 59 60 61 62 63 63 63 62 62 61 61 61 61 61 62 62 61 62 62 62 62 60 59 59 59 59 61 62 64 65 66 65 65 64 64 64 65 66 66 66 66 65 65 64 63
45 44 44 44 44 43 43 44 44 44 42 42 42 41 41 40 40 40 40 39 39 39 39 40 41 40 40 41 41 42 43 44 45 46 47 49 49 50 51 52 53 54 56 57 58 59 60 61 62 62 62 62 62 62 61 60 60 61 61 61 61 62 62 61 59 58 59 59 60 60 62 64 65 65 64 63 63 63 63 64 65 65 65 64 63 62 62 60
45 45 44 44 43 43 43 44 44 44 43 42 41 41 40 39 39 39 39 39 38 38 38 39 39 38 38 39 40 41 42 43 44 45 46 47 47 49 50 51 52 53 54 55 56 57 58 59 60 61 61 61 60 60 60 60 60 60 61 61 62 62 62 60 58 58 59 59 60 60 61 63 63 64 62 61 61 62 62 62 63 64 63 62 60 60 60 59
46 45 45 45 44 44 43 43 43 44 43 42 41 41 39 38 38 38 39 38 37 38 38 38 38 37 36 38 39 39 40 42 44 45 45 46 47 48 49 50 51 52 53 54 55 56 56 57 58 58 58 58 58 59 59 59 60 60 61 61 61 62 61 59 58 59 59 59 59 59 61 61 61 61 60 59 60 61 61 61 62 62 61 60 59 59 59 59
47 46 46 45 45 44 44 43 43 43 43 42 41 40 38 37 37 38 38 38 36 37 37 37 36 35 35 37 38 38 39 41 43 44 45 45 46 47 48 49 50 51 52 53 54 55 55 56 55 54 55 56 57 58 58 58 58 59 60 60 61 61 60 59 58 58 58 58 58 59 60 59 58 58 58 58 59 60 60 61 61 61 60 59 59 59 59 59
47 47 46 45 45 45 45 43 43 43 43 42 42 40 38 37 37 37 38 37 36 36 37 36 35 34 34 37 38 38 39 40 42 43 44 44 45 47 48 48 49 50 51 53 54 54 54 52 52 52 53 54 55 55 56 56 57 58 59 59 60 60 59 58 57 56 57 57 58 58 58 57 56 57 58 58 59 60 60 60 60 59 59 59 59 59 59 58
46 46 46 46 45 45 45 44 43 43 42 42 42 41 38 37 37 37 37 37 35 35 37 35 33 33 34 37 38 37 37 38 40 43 44 44 45 46 47 48 48 50 51 52 53 53 51 50 51 52 52 52 53 53 53 54 55 56 57 58 58 58 57 56 55 55 56 56 57 57 56 56 55 56 57 58 58 58 59 59 58 57 57 57 57 57 57 55
46 46 46 46 46 46 46 45 43 43 42 42 42 41 39 37 38 38 37 37 35 34 36 35 32 33 34 36 36 36 36 37 39 41 42 43 44 44 45 47 48 50 51 51 51 51 49 50 51 51 51 51 51 51 52 52 53 54 55 56 56 56 55 53 53 54 55 55 56 55 54 54 54 54 55 55 56 56 56 56 55 55 55 55 55 54 53 52
46 46 46 46 46 46 46 46 45 43 42 42 43 42 40 38 38 39 37 38 36 34 35 35 32 33 34 35 35 35 36 37 37 39 41 42 43 44 45 47 48 49 50 50 50 49 50 51 51 50 50 50 50 51 51 51 51 52 54 54 53 53 52 51 51 52 52 53 53 52 51 52 52 51 52 53 53 53 53 53 53 52 52 52 52 51 49 48
48 47 47 47 47 47 47 47 46 44 43 43 43 42 40 38 39 39 38 38 37 34 34 35 33 32 33 35 35 34 35 36 36 38 39 41 42 43 45 46 48 49 49 49 49 50 50 51 50 50 50 50 50 50 50 50 50 51 52 51 51 50 50 49 49 49 50 50 50 49 48 49 49 48 49 50 50 50 50 50 50 49 49 49 48 47 46 44
50 49 49 48 48 48 48 47 46 45 44 44 43 43 41 39 39 40 39 39 38 35 34 34 33 32 33 34 34 34 34 35 35 36 37 39 41 43 45 46 47 48 48 49 49 49 50 49 49 50 50 50 50 49 49 49 49 50 50 49 49 48 48 47 47 47 48 47 46 47 45 45 46 46 47 47 46 45 45 46 46 46 46 45 44 43 42 41
51 50 50 50 49 49 49 48 46 46 46 45 44 44 42 40 39 40 40 40 40 37 35 34 34 33 33 34 34 33 34 34 35 35 35 38 41 43 45 46 46 47 48 49 49 49 49 49 50 50 50 51 50 50 50 49 49 49 48 48 48 47 47 46 46 46 46 45 44 45 42 42 44 44 44 44 42 40 38 38 41 43 42 42 41 40 40 39
51 51 51 51 50 49 49 48 47 47 47 46 44 44 43 41 40 40 40 42 42 39 36 35 34 34 34 34 34 33 33 34 35 34 34 37 40 43 44 45 45 46 48 49 49 49 50 50 51 51 51 51 51 51 50 49 49 49 48 48 47 47 46 46 45 46 44 43 43 43 40 40 43 44 43 42 40 40 39 38 39 40 40 39 39 39 39 39
51 51 51 51 51 50 50 49 48 48 48 47 45 44 43 42 40 38 41 46 45 40 37 35 35 35 35 35 34 32 32 33 34 34 34 37 39 41 43 44 45 47 48 49 49 50 50 51 52 52 52 52 51 51 50 50 49 49 48 48 47 47 46 45 45 44 43 42 43 42 39 39 44 45 42 41 40 40 40 40 41 40 39 39 39 39 39 39
50 51 51 52 52 51 49 49 49 50 48 47 46 45 44 42 39 38 44 49 45 40 39 37 36 36 36 35 34 32 31 33 34 34 34 36 38 40 41 43 45 47 48 49 49 50 50 51 52 52 51 51 51 50 50 50 49 49 49 49 48 47 46 45 45 43 43 44 44 42 40 41 45 46 42 41 42 42 41 42 41 41 40 40 40 40 40 40
50 50 50 51 52 51 50 49 50 50 50 49 46 45 44 41 38 41 48 50 44 41 41 39 37 37 36 36 35 33 32 32 34 35 34 35 37 38 40 41 43 45 47 48 47 48 49 50 51 51 51 51 51 51 50 50 50 50 49 48 48 47 46 45 45 44 45 47 45 43 42 43 46 47 44 43 44 44 44 43 42 41 41 41 41 41 41 40
50 51 51 51 52 52 51 51 51 51 51 50 47 46 44 40 40 47 51 49 45 42 41 40 39 37 37 36 35 33 32 32 33 35 35 35 36 36 38 40 42 44 46 47 46 47 48 50 51 51 51 51 51 51 51 51 51 50 49 49 48 48 47 46 46 46 48 48 46 45 44 44 47 48 47 46 46 46 45 44 43 43 42 42 42 41 41 40
50 51 51 51 52 53 53 53 52 52 53 52 49 46 42 40 44 51 53 49 45 41 41 42 40 38 37 36 35 34 33 32 33 34 35 35 35 35 36 38 41 43 44 45 46 46 48 49 51 51 51 51 52 51 51 51 51 51 50 49 49 49 48 48 48 48 49 49 48 46 45 46 49 50 48 47 47 47 46 45 44 44 43 43 42 42 41 40
51 52 52 52 53 54 54 54 54 53 53 53 50 45 42 44 49 53 52 50 45 42 42 43 41 39 38 36 35 34 34 33 33 34 35 35 36 36 36 36 38 40 42 44 45 46 47 49 50 50 50 50 50 50 50 51 52 51 49 50 50 50 50 49 48 49 50 50 49 48 47 48 50 50 49 48 48 47 46 45 45 45 44 44 43 42 41 40
52 53 53 53 54 54 55 55 55 54 54 53 50 46 45 49 51 52 53 50 47 44 43 43 42 40 39 37 36 35 35 34 33 33 34 35 37 37 36 36 36 37 39 42 44 45 46 48 49 48 49 49 49 49 49 50 51 50 49 51 52 51 50 49 49 50 50 50 50 50 49 49 50 51 50 48 48 47 47 46 46 46 46 45 43 42 41 40
52 53 53 54 54 54 55 56 55 55 54 52 49 48 49 51 52 53 53 52 49 46 44 43 42 41 40 39 37 36 35 35 33 33 33 35 37 38 38 37 36 37 37 39 41 43 44 47 47 47 48 48 49 49 49 49 49 49 50 51 51 50 49 50 50 50 50 51 51 51 50 50 51 51 50 49 49 48 48 48 48 47 46 45 44 42 42 40
52 52 53 53 53 54 55 55 55 54 53 51 50 50 51 53 54 54 54 53 51 48 45 43 42 41 41 40 39 37 36 35 34 34 34 34 35 38 39 38 37 38 37 37 38 40 42 44 45 46 46 47 48 48 49 49 49 49 50 50 50 49 50 50 50 50 51 51 51 51 51 50 51 51 50 50 50 50 49 49 48 48 47 45 44 43 42 41
52 52 53 53 53 53 54 55 54 54 52 51 51 51 53 55 55 54 53 53 52 49 46 43 42 42 42 41 40 38 37 36 35 36 35 34 35 37 39 40 39 39 38 38 38 38 39 41 42 43 44 46 47 47 48 49 49 50 50 49 49 49 49 50 49 49 50 51 50 50 50 50 51 52 51 51 51 50 50 48 47 47 47 46 45 44 43 41
51 52 53 53 53 53 53 54 55 54 53 52 52 52 53 55 55 54 53 53 52 50 46 44 43 43 43 43 42 40 38 37 37 37 36 36 36 36 38 41 41 41 41 39 38 38 37 39 40 41 41 43 44 45 46 48 48 49 49 49 50 49 49 49 49 49 49 50 50 49 50 50 52 52 52 51 51 51 50 48 46 45 45 45 45 44 44 43
51 51 51 52 53 52 52 54 55 55 54 54 53 54 55 56 56 55 53 53 52 50 47 46 45 44 44 44 43 41 40 39 38 38 38 38 37 37 38 40 42 43 43 42 40 40 39 40 41 40 39 40 41 43 44 45 47 47 48 48 49 49 49 49 49 49 50 50 50 49 50 51 52 52 52 52 52 52 50 48 46 45 45 46 46 46 46 45
48 48 47 47 48 49 49 51 52 53 54 54 55 55 56 57 57 56 54 53 52 51 49 48 46 45 45 45 44 43 43 41 40 40 40 40 39 38 38 39 41 44 45 45 44 43 42 42 41 40 39 40 40 42 43 43 45 46 46 47 47 47 48 48 49 50 51 51 50 51 51 51 52 53 53 53 53 52 51 49 48 49 49 48 48 48 47 47
43 43 42 41 41 42 44 45 47 48 49 51 53 55 56 57 58 57 55 53 52 51 51 49 48 48 47 47 47 46 45 44 43 42 42 41 40 39 39 39 40 43 45 47 47 46 46 45 44 42 41 41 42 42 42 42 43 44 44 45 46 46 47 47 48 49 50 50 50 52 52 52 54 54 54 54 53 53 52 51 51 51 51 50 49 49 49 48
40 40 39 37 37 37 38 40 41 42 43 46 48 52 55 57 58 58 55 53 53 52 52 51 50 50 50 49 48 47 46 46 45 44 43 42 41 40 40 40 40 41 43 46 48 49 49 48 47 46 45 45 45 45 45 45 45 45 45 46 46 46 46 46 47 48 49 50 50 52 53 54 55 55 55 55 54 54 54 53 53 53 51 51 50 50 49 49
36 36 36 35 34 34 34 35 36 36 38 40 42 45 50 54 56 58 56 54 53 53 53 53 52 52 52 51 50 49 48 48 47 45 44 43 42 42 41 41 41 41 42 44 46 49 50 51 51 49 49 49 49 48 48 49 48 47 46 46 47 46 47 46 46 48 49 49 50 52 53 54 55 55 55 55 54 54 54 54 53 53 52 52 52 51 51 50
33 33 32 32 32 31 30 30 31 32 33 35 38 40 44 48 52 55 56 55 55 54 54 54 54 54 54 53 52 51 50 49 48 47 46 45 44 43 43 42 42 41 42 43 45 48 50 52 53 53 53 53 52 51 51 51 50 49 48 49 49 48 48 48 48 49 49 49 50 51 51 53 54 54 54 54 54 54 54 54 54 54 53 53 54 53 53 53
30 30 29 28 28 27 27 26 27 28 28 31 33 36 39 42 46 50 53 55 56 56 56 56 56 56 55 55 54 53 52 51 49 48 47 46 45 45 44 44 43 42 43 44 45 47 49 52 54 55 55 55 55 54 54 53 53 52 51 52 52 52 51 50 50 51 50 51 52 52 52 53 54 54 55 55 55 55 54 55 55 55 55 55 55 55 55 55
28 28 27 26 25 24 23 22 23 23 24 27 30 32 34 37 40 44 48 52 55 56 57 57 57 57 56 56 55 54 53 52 50 49 48 47 47 47 46 45 45 45 45 45 46 48 49 50 52 55 57 58 58 57 56 56 56 55 55 55 55 55 54 52 51 51 52 53 53 53 54 54 54 55 56 56 56 56 56 56 56 57 57 57 57 57 56 56
28 27 26 24 22 20 20 19 19 20 22 24 27 29 31 34 36 39 42 46 51 55 57 58 58 58 57 56 55 55 54 53 52 51 50 50 49 48 48 47 47 48 47 47 47 48 49 50 51 53 56 58 59 59 59 58 58 58 58 58 58 58 57 56 54 54 54 55 55 56 56 57 57 57 58 58 59 59 58 58 58 59 59 58 58 57 57 56
25 25 24 23 20 18 16 16 16 17 19 21 24 26 28 31 33 35 38 42 46 51 56 58 59 59 58 57 56 56 55 54 53 53 52 52 51 50 50 50 50 50 49 48 48 48 49 50 52 53 54 55 57 58 59 59 60 60 60 59 60 60 59 58 57 57 57 58 58 58 59 59 60 60 60 60 60 60 60 60 60 60 60 59 59 58 57 57
24 23 22 21 18 16 14 12 12 13 15 18 20 23 26 28 30 32 35 38 42 46 52 57 59 60 60 59 58 58 57 56 55 55 54 54 53 52 52 52 51 51 50 50 50 50 50 51 52 53 54 54 54 56 57 59 59 60 61 62 62 62 61 60 60 60 60 60 60 61 61 61 61 61 61 61 61 61 62 61 61 61 60 60 59 58 58 58
Wind_Direction
269 269 269 269 269 269 269 270 270 270 270 270 270 270 269 268 267 266 264 263 262 261 259 258 257 256 255 255 254 254 253 253 253 253 252 252 251 251 251 251 250 250 250 249 249 249 249 249 249 249 249 249 249 249 249 250 250 250 250 250 251 251 251 252 252 253 254 254 254 254 255 255 256 256 257 258 259 259 259 260 260 261 261 262 262 263 264 265
270 270 270 270 270 270 270 270 271 271 271 271 271 270 269 268 267 265 264 263 261 260 259 258 257 256 255 254 253 253 253 253 253 252 252 252 251 251 251 251 250 250 250 249 249 249 249 249 249 249 249 249 249 250 250 250 250 250 251 251 251 252 252 253 253 253 254 255 255 255 255 255 256 256 257 258 259 259 260 260 260 261 262 262 263 264 264 265
271 270 270 270 271 271 271 271 272 272 272 271 271 270 269 267 266 265 263 262 261 260 259 258 256 255 254 253 253 252 252 252 252 252 252 251 251 251 251 250 250 250 249 249 249 249 249 249 249 249 249 249 249 249 250 250 251 251 251 251 252 252 253 253 254 254 255 255 255 256 256 256 256 257 257 258 259 259 260 261 261 262 263 263 264 264 265 265
271 271 271 271 272 272 272 272 272 272 272 271 270 269 268 266 265 264 263 262 261 260 259 258 257 255 254 253 252 251 251 251 251 251 251 251 251 250 250 250 250 249 249 249 249 249 249 249 249 249 249 249 249 249 250 250 251 251 252 252 252 253 253 254 254 254 255 255 256 256 257 257 257 257 258 258 259 259 260 261 262 263 263 264 265 265 266 266
272 272 273 273 273 273 273 273 273 272 271 270 269 268 267 265 265 264 263 262 261 261 260 258 257 256 254 253 252 251 250 250 249 250 250 250 250 250 249 249 249 249 249 248 248 248 248 248 249 249 248 248 249 249 249 250 250 251 251 252 253 253 254 254 254 255 255 256 256 256 257 258 258 258 258 259 260 261 261 262 262 263 264 264 265 266 267 268
273 274 274 274 274 274 274 273 273 272 270 269 268 267 266 265 265 264 264 263 262 261 260 258 257 256 254 253 252 251 249 249 248 248 248 248 249 249 249 248 248 248 248 248 248 248 248 248 248 248 248 248 248 249 249 250 250 251 251 252 253 253 254 255 255 255 255 256 256 256 257 258 258 259 259 260 261 262 263 264 264 264 265 265 265 266 267 268
274 274 275 274 274 274 274 273 272 271 269 268 267 266 266 266 265 265 265 264 263 261 260 258 257 256 254 253 252 250 249 248 247 247 247 247 247 248 248 248 247 247 247 247 247 247 247 247 247 248 248 248 248 248 248 249 250 250 251 251 252 253 254 254 255 255 255 255 256 256 257 258 259 260 261 262 263 263 264 265 265 266 266 266 267 267 268 269
275 275 275 274 274 274 273 272 270 269 268 267 267 266 266 266 267 266 265 264 263 261 260 258 257 256 254 253 252 251 249 248 247 246 246 246 246 246 246 247 247 247 246 246 247 247 247 247 247 247 248 248 248 248 248 249 249 250 251 251 252 252 253 254 254 255 255 255 256 257 257 259 260 261 262 263 263 264 265 265 266 267 267 267 268 268 269 269
275 275 275 274 273 272 271 270 269 268 268 267 267 267 267 267 268 267 266 264 263 262 261 259 258 256 254 253 252 251 249 248 247 246 245 245 245 245 245 246 246 246 246 246 246 246 246 246 247 247 247 247 247 247 247 248 249 250 250 250 251 251 252 252 253 254 254 255 256 257 258 259 261 262 262 263 263 264 265 265 266 267 267 268 268 269 269 270
275 275 274 273 272 271 270 269 268 268 268 267 267 267 268 268 268 267 266 264 263 263 262 261 259 257 255 254 252 251 250 248 247 245 245 244 244 244 244 244 245 245 245 245 245 246 246 246 246 247 246 246 246 246 246 246 247 248 249 249 250 250 251 251 252 253 254 255 256 257 259 260 261 262 262 263 263 264 265 265 266 266 267 267 268 268 269 269
275 274 273 272 271 269 269 268 268 269 268 268 268 268 268 269 269 267 266 265 265 264 263 262 260 258 256 254 253 251 249 248 247 246 245 244 244 243 243 243 244 244 244 245 245 245 245 245 245 245 245 245 245 245 245 246 246 248 249 249 249 250 250 251 252 253 254 255 256 257 258 259 260 261 262 263 264 264 265 265 265 266 266 267 268 268 268 268
274 273 271 270 269 268 268 268 269 269 269 269 269 269 270 270 269 268 267 266 266 266 264 262 260 258 256 254 252 251 249 248 247 246 245 244 243 243 242 242 243 243 243 244 244 244 244 244 244 245 245 244 245 245 245 246 247 248 249 249 250 250 251 251 252 254 255 256 256 257 258 259 259 260 261 262 263 264 264 264 265 265 266 267 267 268 268 269
273 271 270 269 268 268 268 269 269 270 270 270 270 270 270 271 270 268 267 267 268 267 266 263 260 258 256 254 252 250 249 248 247 246 245 244 243 243 242 242 242 242 243 243 244 244 244 244 244 244 244 244 245 245 246 246 247 248 249 250 250 251 251 252 253 254 255 256 257 257 258 259 259 260 261 261 262 262 263 264 264 265 266 267 267 268 269 270
271 270 269 269 268 268 269 269 270 271 271 271 271 271 271 272 271 269 268 269 269 268 266 263 260 258 256 253 252 250 249 247 246 246 245 244 243 243 242 241 241 241 242 242 243 243 243 243 243 244 244 245 245 246 246 246 247 248 250 250 251 252 252 252 253 254 255 256 257 258 259 259 259 259 260 260 261 261 262 263 264 265 266 267 268 268 269 269
270 269 269 269 269 269 270 270 271 271 272 272 271 271 272 273 272 270 269 270 270 269 267 263 260 258 255 253 252 250 248 247 245 244 244 243 243 242 242 241 241 241 241 241 242 242 243 243 243 244 244 245 245 245 246 246 247 248 250 250 251 252 253 253 253 254 255 256 257 258 259 259 259 259 259 260 260 261 262 263 264 265 266 267 267 268 269 269
268 268 269 269 269 270 271 271 272 272 272 272 272 272 273 274 274 272 270 271 271 270 267 263 260 258 255 253 252 250 248 246 245 244 243 242 242 242 241 241 241 240 240 240 241 241 242 243 243 244 244 245 245 245 246 246 247 248 250 251 251 252 253 253 253 254 255 256 258 258 258 259 259 259 259 260 260 261 262 263 264 265 266 266 267 268 268 269
267 268 268 269 270 271 272 272 272 272 273 273 273 273 274 275 275 273 271 271 272 271 267 263 260 257 255 253 252 250 247 246 244 243 243 242 241 241 241 241 240 240 240 240 240 241 241 242 243 243 244 245 245 246 246 246 247 248 249 250 252 253 253 253 254 255 255 256 257 257 258 259 259 259 259 260 261 262 263 264 264 265 265 266 267 268 268 269
267 268 268 269 270 271 272 272 272 272 273 273 273 273 274 275 276 274 272 272 272 270 267 262 259 257 255 253 252 250 248 246 245 243 242 242 241 241 241 240 240 240 240 240 240 241 241 242 242 243 244 244 245 245 246 246 247 248 249 251 252 253 253 253 254 254 255 255 255 256 257 258 258 259 259 260 262 263 263 264 264 264 265 266 267 268 269 270
267 268 268 269 270 271 271 272 272 272 273 273 273 273 274 276 277 275 272 271 271 270 267 263 260 258 256 254 252 250 248 247 245 243 242 242 241 240 240 240 239 239 240 240 240 240 241 242 242 242 243 243 244 245 246 246 247 248 249 250 251 251 252 252 253 253 253 253 253 254 255 256 258 259 260 261 263 263 263 263 264 265 265 266 268 269 269 270
267 268 269 269 270 270 271 271 272 273 273 273 273 273 274 276 277 275 272 271 271 270 268 264 261 258 256 254 252 250 249 247 246 243 242 241 240 240 239 239 239 239 239 239 240 240 240 241 241 242 242 243 244 245 246 246 246 247 248 249 249 250 251 252 252 253 253 253 253 253 254 256 257 259 261 262 262 263 263 263 264 265 266 267 268 268 269 269
268 269 269 269 270 270 270 271 272 273 273 273 272 273 274 275 276 275 273 271 271 271 269 265 262 259 256 254 252 250 249 247 246 244 242 240 239 239 239 239 239 239 239 239 239 240 240 240 241 242 243 243 244 244 244 244 245 246 247 247 248 249 250 251 251 252 252 253 253 254 254 256 257 259 261 261 262 262 263 263 264 265 266 267 267 267 268 268
268 269 269 269 270 270 270 271 272 273 273 273 272 273 273 274 275 275 273 271 270 271 269 267 263 259 256 254 252 250 248 247 245 243 242 240 239 238 238 238 238 239 239 239 239 239 239 240 241 242 242 242 242 242 243 243 244 245 245 246 247 248 250 250 251 251 253 253 254 254 255 256 258 259 260 261 261 262 262 263 264 265 266 266 267 267 266 267
267 268 268 269 270 271 271 271 272 272 273 273 273 272 272 273 274 274 273 271 270 271 270 267 264 260 257 254 252 250 248 246 245 243 241 240 238 238 238 237 238 238 238 238 239 239 240 240 241 241 241 241 241 242 242 243 243 244 245 246 247 248 249 250 251 252 253 253 254 255 256 257 258 259 259 260 261 262 262 263 264 265 266 266 266 266 266 267
266 268 269 270 270 271 272 272 272 272 272 272 272 272 272 272 273 273 273 270 268 269 269 267 265 261 256 254 252 250 249 247 245 242 241 239 238 237 237 237 237 237 238 238 239 240 240 240 240 240 240 241 241 241 242 242 243 243 244 245 246 247 249 250 251 252 252 253 254 255 256 257 258 258 259 260 261 262 262 263 264 264 265 265 265 265 266 267
266 267 269 270 271 272 272 272 271 270 271 271 271 271 271 271 272 272 272 270 267 267 269 267 264 261 257 254 253 251 250 247 245 243 241 239 238 238 237 237 237 237 238 239 240 241 241 240 240 240 241 241 241 241 241 242 242 243 244 245 246 247 249 250 250 251 252 253 254 255 256 257 257 258 258 259 260 261 262 263 263 264 264 264 264 265 266 266
267 268 269 270 270 271 271 271 270 270 269 269 269 269 269 270 271 271 271 270 267 265 267 267 263 260 258 255 252 250 249 248 245 243 241 239 238 237 237 236 236 236 237 238 239 240 239 239 239 240 240 241 241 241 241 242 242 243 243 245 246 247 248 248 249 250 251 252 253 255 255 256 256 257 258 258 259 260 261 262 262 263 263 263 264 264 265 266
267 268 269 269 270 270 270 270 269 269 268 267 267 267 267 268 269 270 270 269 267 264 264 265 263 260 258 256 252 249 249 248 246 243 241 239 237 236 236 236 236 236 237 237 238 238 238 239 240 240 240 240 241 241 242 242 242 243 244 245 246 246 246 247 248 249 250 251 252 253 254 255 256 256 257 257 259 260 261 262 262 262 262 263 263 264 264 264
267 268 269 269 269 269 268 268 268 268 267 266 265 265 265 266 268 269 269 268 266 262 261 262 262 259 257 255 253 249 248 248 246 243 241 239 237 236 235 235 235 235 236 236 237 237 238 239 239 239 240 240 240 240 241 241 242 243 244 244 245 245 245 246 246 247 248 249 251 252 253 255 256 256 257 257 258 260 261 264 264 262 262 262 263 263 263 263
266 267 268 268 268 269 268 266 266 266 265 264 264 264 265 265 266 268 269 268 265 260 257 258 259 258 256 254 253 249 246 246 245 243 240 238 236 235 234 234 234 235 235 235 235 236 236 237 237 238 238 238 239 239 239 240 241 242 243 243 244 244 245 245 245 246 247 248 250 251 252 255 257 256 256 257 256 256 256 258 260 261 262 262 263 263 262 262
264 265 267 267 268 268 268 266 265 264 264 264 263 264 264 265 265 268 269 267 262 258 255 255 256 256 255 254 252 249 246 244 244 242 239 238 236 235 235 234 234 234 234 234 234 235 235 235 236 236 237 237 238 238 239 239 240 241 242 242 243 243 244 244 244 245 246 247 249 251 251 254 257 257 256 256 256 255 253 252 255 259 261 262 262 261 261 261
264 265 266 267 267 267 267 266 265 263 263 263 263 263 264 264 265 267 267 264 261 258 254 253 253 253 253 253 251 249 246 244 243 242 239 238 237 236 235 234 233 233 233 233 233 233 234 234 235 235 236 237 238 238 239 239 240 241 241 242 242 243 243 244 244 245 247 247 248 249 250 252 255 256 256 257 257 257 257 256 257 259 260 260 260 260 260 260
264 265 266 267 267 267 265 265 264 263 262 262 261 262 263 263 265 265 262 260 260 258 254 251 251 251 251 252 251 249 246 244 242 240 238 238 238 236 235 234 233 234 234 233 233 233 234 234 235 236 236 237 238 239 240 240 241 241 241 242 243 243 243 244 245 246 246 246 247 248 249 250 253 256 257 258 259 259 259 258 258 259 259 259 259 259 259 259
264 265 265 266 267 266 264 263 263 264 263 261 261 261 261 263 264 261 258 257 257 256 253 250 249 250 250 250 251 249 246 244 242 240 238 237 237 237 236 235 235 235 235 235 234 234 235 236 236 237 237 238 238 239 239 240 241 241 242 243 243 244 244 245 245 245 245 246 247 247 248 249 253 256 257 257 258 259 259 258 258 258 258 258 257 257 258 258
265 265 265 265 265 265 264 263 262 263 262 261 260 260 261 261 260 256 255 255 254 253 252 250 249 249 249 249 249 248 246 244 243 241 239 238 238 237 237 236 235 235 236 235 234 234 235 235 236 236 236 237 237 238 239 240 241 241 241 242 243 244 244 244 244 244 245 246 247 247 248 250 253 255 256 256 257 257 258 258 258 258 258 257 257 257 258 258
265 265 265 264 264 264 264 263 262 262 262 261 260 259 259 258 254 253 254 254 252 251 250 249 248 247 247 247 247 246 245 244 243 241 239 238 237 236 236 235 235 235 236 236 235 234 234 235 236 235 236 236 237 238 239 240 241 241 241 242 242 243 243 243 244 244 246 247 247 248 248 250 252 254 255 255 256 256 257 257 257 257 257 257 257 257 258 259
266 265 265 264 263 263 263 262 261 261 260 260 259 258 256 253 250 251 253 253 251 249 247 247 246 246 246 246 245 244 244 243 242 241 239 238 237 236 236 235 236 236 236 237 236 235 234 235 236 236 236 237 238 239 239 240 242 242 242 242 242 242 243 243 244 245 246 247 248 247 248 249 251 253 254 254 255 255 256 256 256 256 256 256 257 257 258 259
267 266 265 265 264 263 262 261 261 260 259 258 258 256 252 250 249 251 252 251 249 246 245 244 244 245 245 245 244 243 243 243 242 241 240 238 238 237 236 236 235 235 236 236 237 236 235 236 236 236 236 237 238 238 239 240 242 242 243 243 243 243 243 244 244 245 246 247 247 247 247 248 250 251 252 253 253 253 253 254 254 255 256 256 257 257 257 257
268 267 266 265 264 263 262 261 260 259 258 257 256 254 251 249 248 248 249 249 247 245 243 242 242 243 244 243 243 241 241 242 241 241 239 238 237 237 237 236 235 234 234 235 236 236 236 237 236 235 236 236 237 237 238 238 240 241 241 242 243 243 243 243 243 244 245 245 246 246 247 247 249 250 251 251 251 251 252 252 253 254 255 256 256 256 256 256
270 268 267 265 264 263 262 261 259 258 257 255 254 251 249 248 246 246 246 247 246 244 242 241 240 241 242 242 242 240 240 240 240 240 239 237 237 237 237 237 236 236 235 235 236 236 237 238 237 235 236 236 237 237 237 237 238 239 240 241 242 242 242 243 243 243 244 245 246 246 246 247 248 248 249 249 250 250 251 252 253 254 255 256 256 256 256 255
271 270 268 266 263 262 261 260 259 257 255 253 251 249 247 247 246 244 244 245 245 243 241 239 238 238 240 241 241 240 238 238 239 239 239 238 237 236 236 236 236 237 237 236 236 236 236 238 238 237 236 237 237 237 238 237 237 238 239 240 240 241 241 242 242 243 244 244 245 245 246 246 246 247 247 248 248 249 250 251 252 253 254 255 255 256 256 254
272 271 269 268 266 263 261 260 259 257 254 252 250 248 247 247 246 244 243 243 244 243 240 238 237 237 238 239 239 239 238 237 237 239 238 237 237 235 235 235 235 236 238 237 237 237 237 238 238 237 236 237 237 238 238 239 239 239 240 240 240 240 241 241 241 242 243 243 244 244 244 245 245 246 246 247 247 248 249 249 250 252 252 253 253 253 253 252
275 273 271 270 269 266 263 261 258 256 254 252 249 247 246 245 245 243 242 241 242 241 239 237 235 235 236 237 238 238 238 236 236 237 237 236 236 235 234 235 234 234 236 237 237 238 238 238 238 237 237 238 238 238 239 239 239 239 239 240 241 241 241 241 241 241 241 241 242 242 243 244 245 246 246 246 247 247 248 248 248 249 249 249 250 250 249 249
279 277 275 273 271 269 266 262 259 256 254 251 248 246 245 244 244 243 241 240 239 239 238 236 233 232 233 235 235 236 236 236 235 235 236 236 236 235 234 234 234 233 234 235 236 238 238 239 240 239 239 239 239 240 240 240 240 240 239 240 240 241 241 241 241 241 241 241 241 241 242 243 244 245 245 245 246 246 246 246 246 247 247 247 247 248 248 248
284 282 280 277 274 271 268 264 261 257 254 250 247 245 244 243 242 242 240 238 237 237 236 235 233 231 231 232 233 233 234 235 234 234 235 236 236 236 235 234 235 234 234 234 234 236 237 238 239 239 239 239 240 240 241 241 242 242 241 240 239 239 239 240 240 241 242 242 242 242 243 243 243 244 245 245 246 246 246 246 246 246 247 247 247 247 247 247
288 287 286 284 279 274 270 265 262 258 254 250 247 244 242 241 240 240 239 237 236 235 234 234 232 231 230 231 232 232 233 234 234 234 235 235 236 237 237 236 235 235 236 236 235 236 237 238 238 238 238 239 239 239 239 240 240 240 240 240 239 239 238 239 239 240 241 242 242 242 243 244 244 245 245 245 246 246 246 246 246 247 247 247 247 247 247 246
291 291 290 288 285 279 273 268 263 259 254 251 247 243 241 239 238 238 237 235 234 233 233 232 231 231 230 230 231 232 232 233 234 234 235 235 236 237 238 238 237 236 236 237 237 237 237 238 239 238 237 238 238 238 239 239 239 240 240 241 241 240 240 239 239 240 241 241 242 243 244 245 246 247 247 247 247 247 248 247 248 248 248 248 248 248 247 247
295 294 293 291 288 284 278 271 265 259 253 249 245 242 240 238 237 236 235 233 231 231 231 231 231 230 230 230 230 231 231 232 233 234 235 236 236 236 237 239 239 238 237 237 237 238 238 238 239 239 239 239 239 239 240 241 241 241 241 242 242 242 242 241 240 241 242 242 243 244 244 246 247 248 248 249 249 249 249 249 249 249 248 249 249 249 248 248
301 300 299 296 292 288 282 275 267 261 255 249 245 241 238 237 236 235 233 231 229 229 229 230 230 230 230 230 230 230 231 232 233 234 234 236 237 237 237 238 239 240 239 238 237 237 238 238 239 240 241 241 240 240 240 241 242 242 241 242 243 243 243 242 242 242 242 242 243 244 245 245 247 248 249 249 250 250 250 250 250 250 250 250 250 250 250 249
310 308 306 304 300 294 286 278 269 262 254 248 243 239 236 235 235 234 232 230 229 228 228 228 229 230 230 230 231 231 231 232 233 234 234 235 236 237 238 238 239 239 240 239 238 238 238 239 239 239 240 242 242 241 240 240 242 242 242 242 243 244 244 244 243 243 244 244 244 245 245 246 246 247 248 249 250 250 250 251 251 251 251 251 251 252 252 252
317 315 313 311 307 300 292 283 271 261 251 244 239 235 233 231 231 231 230 229 228 227 227 227 228 229 230 231 231 231 232 232 233 233 234 235 236 237 238 238 239 239 240 240 241 241 241 241 241 240 240 241 243 243 243 242 242 242 243 243 243 244 244 244 244 245 245 245 245 245 246 246 246 246 247 248 249 250 250 251 251 252 253 253 254 254 255 255
322 321 321 320 317 310 300 289 275 262 251 243 237 233 230 229 228 227 227 227 226 226 226 226 227 228 229 230 231 232 232 233 233 234 234 235 236 236 238 238 239 240 241 241 242 243 243 243 244 244 243 243 244 244 245 245 245 245 245 245 246 246 246 246 245 245 245 246 246 246 246 247 247 247 248 249 249 250 251 252 253 254 255 256 257 257 258 259
330 329 329 328 326 321 311 296 280 265 253 243 235 230 227 226 225 225 225 225 225 225 226 226 226 228 229 229 230 231 232 232 233 234 234 235 236 237 237 239 240 241 242 242 243 244 244 245 245 246 247 247 247 246 247 247 247 247 247 247 248 248 249 249 248 248 248 248 248 248 248 249 250 250 251 251 251 252 253 254 254 255 257 258 260 261 263 264
Height
10656 10656 10655 10655 10655 10656 10656 10656 10656 10656 10656 10656 10656 10656 10657 10657 10657 10657 10657 10657 10658 10659 10660 10661 10663 10665 10667 10669 10671 10673 10675 10677 10680 10684 10688 10691 10694 10697 10701 10703 10707 10711 10713 10716 10719 10721 10722 10722 10724 10727 10731 10734 10736 10739 10742 10744 10746 10748 10750 10749 10749 10751 10755 10759 10763 10767 10770 10774 10775 10776 10775 10775 10777 10777 10777 10777 10778 10779 10779 10780 10780 10781 10781 10781 10782 10782 10783 10783
10648 10648 10647 10647 10647 10648 10648 10648 10648 10648 10647 10647 10647 10647 10647 10647 10648 10648 10648 10648 10648 10649 10650 10652 10654 10655 10657 10659 10661 10663 10666 10668 10671 10675 10678 10681 10684 10687 10691 10694 10698 10702 10705 10707 10709 10712 10713 10714 10716 10720 10723 10726 10729 10732 10734 10736 10738 10740 10741 10740 10741 10745 10748 10752 10756 10760 10763 10765 10767 10767 10767 10768 10768 10769 10770 10769 10770 10770 10770 10771 10772 10773 10774 10774 10774 10775 10774 10773
10640 10640 10640 10639 10639 10639 10640 10640 10639 10639 10639 10639 10639 10638 10638 10638 10639 10639 10639 10640 10640 10641 10642 10643 10645 10646 10648 10650 10652 10654 10657 10660 10663 10666 10668 10671 10675 10678 10682 10685 10689 10692 10696 10698 10700 10703 10705 10706 10708 10712 10715 10718 10721 10724 10726 10728 10730 10732 10732 10732 10734 10738 10741 10745 10749 10754 10756 10757 10759 10759 10759 10760 10761 10761 10762 10761 10761 10762 10762 10763 10764 10765 10766 10766 10766 10766 10765 10764
10632 10632 10632 10632 10631 10631 10631 10631 10631 10631 10630 10630 10630 10630 10630 10630 10630 10631 10631 10631 10632 10633 10634 10635 10636 10637 10639 10641 10642 10645 10648 10652 10655 10657 10658 10662 10665 10668 10672 10676 10679 10683 10686 10689 10691 10694 10697 10698 10700 10703 10707 10711 10714 10717 10719 10720 10722 10724 10723 10724 10727 10731 10734 10738 10743 10746 10748 10749 10751 10751 10751 10752 10753 10753 10754 10753 10753 10754 10755 10755 10758 10758 10758 10758 10758 10758 10756 10757
10625 10624 10624 10624 10624 10623 10623 10623 10623 10623 10622 10622 10622 10622 10622 10622 10622 10623 10623 10623 10624 10625 10626 10627 10627 10629 10630 10632 10634 10636 10640 10644 10647 10648 10650 10653 10656 10659 10663 10667 10671 10674 10677 10680 10683 10686 10688 10690 10692 10695 10699 10703 10706 10709 10712 10713 10714 10715 10715 10717 10720 10723 10727 10731 10735 10738 10740 10741 10743 10744 10743 10743 10745 10745 10746 10746 10746 10747 10747 10748 10751 10750 10750 10750 10750 10749 10750 10752
10617 10617 10617 10616 10616 10616 10615 10615 10615 10615 10615 10615 10614 10614 10614 10615 10615 10615 10615 10616 10616 10616 10617 10618 10619 10620 10622 10623 10625 10627 10631 10636 10639 10640 10642 10644 10647 10650 10654 10658 10662 10666 10669 10672 10675 10677 10680 10682 10684 10688 10692 10696 10699 10702 10705 10705 10706 10707 10707 10710 10713 10716 10720 10724 10728 10729 10731 10733 10734 10736 10735 10735 10736 10738 10739 10740 10740 10741 10740 10740 10742 10742 10742 10742 10741 10742 10744 10746
10609 10609 10609 10609 10608 10608 10608 10607 10607 10607 10607 10607 10607 10607 10607 10608 10608 10608 10608 10608 10608 10608 10609 10610 10611 10612 10613 10614 10617 10619 10624 10628 10630 10631 10634 10636 10639 10642 10646 10650 10654 10658 10661 10664 10667 10669 10672 10675 10677 10681 10684 10689 10691 10694 10698 10697 10698 10699 10700 10703 10706 10710 10713 10717 10720 10720 10722 10724 10727 10728 10728 10728 10729 10731 10733 10734 10734 10734 10733 10733 10733 10733 10733 10733 10734 10736 10738 10739
10602 10602 10601 10601 10601 10601 10600 10600 10600 10600 10600 10600 10600 10600 10600 10601 10600 10600 10600 10600 10600 10600 10601 10602 10603 10604 10605 10607 10608 10611 10616 10620 10621 10623 10626 10628 10631 10634 10638 10642 10646 10650 10653 10656 10659 10661 10665 10668 10671 10673 10677 10682 10684 10687 10690 10690 10691 10692 10692 10696 10700 10703 10706 10710 10711 10711 10712 10716 10719 10720 10721 10722 10724 10725 10726 10727 10727 10726 10726 10726 10726 10725 10724 10724 10726 10729 10730 10732
10594 10594 10594 10594 10594 10594 10593 10593 10593 10593 10593 10594 10594 10594 10593 10593 10593 10593 10592 10592 10593 10593 10593 10594 10595 10596 10598 10599 10601 10605 10609 10612 10613 10616 10618 10620 10623 10627 10630 10635 10639 10642 10646 10649 10652 10654 10658 10661 10664 10667 10671 10675 10675 10679 10682 10682 10684 10683 10684 10690 10693 10695 10698 10702 10703 10703 10705 10709 10713 10714 10716 10718 10719 10719 10718 10719 10719 10720 10720 10719 10718 10717 10716 10717 10719 10722 10723 10724
10587 10587 10587 10587 10587 10587 10586 10586 10586 10586 10587 10587 10587 10587 10587 10587 10586 10586 10585 10585 10586 10586 10586 10587 10587 10588 10590 10592 10594 10598 10602 10604 10605 10608 10610 10612 10616 10620 10624 10627 10631 10635 10638 10642 10645 10648 10652 10655 10658 10660 10663 10666 10667 10671 10673 10675 10677 10675 10677 10683 10685 10686 10691 10695 10695 10696 10699 10703 10707 10709 10711 10713 10713 10711 10711 10711 10712 10713 10713 10712 10711 10710 10709 10710 10712 10715 10716 10717
10580 10580 10580 10580 10580 10580 10580 10580 10580 10580 10580 10581 10581 10581 10580 10580 10580 10579 10578 10579 10579 10580 10579 10579 10580 10581 10583 10585 10588 10592 10594 10596 10597 10600 10603 10605 10608 10612 10616 10619 10623 10628 10631 10635 10639 10642 10645 10648 10650 10651 10654 10658 10659 10662 10665 10668 10670 10668 10671 10676 10677 10679 10684 10688 10689 10689 10693 10697 10701 10703 10704 10706 10707 10704 10704 10705 10705 10705 10705 10704 10703 10702 10702 10704 10705 10707 10708 10709
10573 10573 10573 10573 10573 10574 10574 10574 10574 10574 10574 10574 10574 10574 10574 10574 10573 10572 10572 10572 10573 10573 10573 10573 10573 10574 10576 10579 10582 10584 10586 10589 10591 10593 10596 10597 10600 10605 10609 10612 10616 10620 10624 10628 10632 10634 10637 10640 10642 10644 10647 10649 10651 10655 10659 10662 10663 10662 10664 10668 10670 10673 10678 10682 10683 10684 10687 10691 10694 10697 10698 10699 10699 10697 10697 10698 10698 10698 10697 10695 10695 10695 10696 10697 10698 10700 10700 10702
10566 10566 10567 10567 10567 10567 10568 10568 10568 10568 10568 10568 10568 10568 10568 10567 10567 10566 10566 10567 10567 10566 10566 10566 10567 10568 10570 10573 10575 10576 10580 10583 10584 10586 10588 10589 10593 10597 10601 10605 10609 10614 10618 10621 10623 10626 10630 10633 10634 10637 10640 10642 10645 10650 10654 10656 10657 10656 10658 10661 10663 10667 10671 10676 10678 10679 10682 10684 10687 10690 10691 10691 10691 10691 10691 10691 10691 10690 10689 10688 10688 10688 10689 10690 10692 10693 10694 10696
10560 10560 10560 10561 10561 10561 10562 10562 10562 10562 10562 10562 10562 10562 10561 10561 10561 10561 10561 10561 10561 10560 10560 10560 10561 10562 10563 10566 10568 10570 10574 10577 10578 10579 10580 10582 10586 10590 10593 10597 10602 10607 10611 10614 10615 10619 10622 10625 10627 10630 10633 10637 10640 10644 10647 10650 10650 10651 10651 10654 10658 10660 10664 10670 10672 10674 10676 10678 10680 10683 10683 10682 10682 10683 10683 10683 10683 10682 10683 10682 10681 10682 10683 10684 10685 10686 10687 10689
10554 10554 10554 10555 10555 10555 10556 10556 10556 10556 10556 10556 10556 10555 10555 10555 10555 10555 10555 10555 10555 10554 10554 10554 10555 10555 10557 10560 10561 10564 10568 10569 10570 10571 10573 10576 10579 10582 10586 10591 10596 10600 10603 10605 10608 10611 10614 10617 10620 10624 10627 10631 10634 10637 10641 10643 10644 10645 10645 10648 10652 10653 10658 10663 10665 10667 10670 10672 10674 10676 10675 10672 10674 10676 10675 10675 10675 10675 10676 10676 10675 10676 10677 10677 10679 10680 10680 10683
10548 10548 10548 10549 10549 10549 10550 10550 10550 10550 10550 10550 10550 10550 10550 10550 10550 10550 10550 10549 10549 10549 10548 10548 10549 10549 10551 10554 10555 10558 10561 10562 10563 10565 10567 10569 10572 10575 10579 10584 10589 10592 10595 10598 10601 10604 10607 10610 10614 10617 10620 10624 10628 10631 10635 10637 10638 10639 10639 10642 10645 10647 10651 10655 10658 10662 10665 10666 10667 10668 10666 10663 10665 10667 10666 10667 10668 10669 10670 10670 10669 10669 10669 10670 10672 10673 10674 10677
10542 10542 10542 10543 10543 10544 10544 10544 10544 10544 10545 10544 10544 10544 10544 10545 10545 10545 10544 10544 10544 10543 10543 10542 10543 10544 10546 10548 10550 10552 10554 10555 10557 10559 10561 10563 10566 10570 10574 10578 10582 10584 10587 10590 10594 10596 10599 10603 10606 10610 10614 10618 10622 10625 10628 10631 10632 10633 10633 10636 10639 10641 10645 10647 10651 10657 10659 10660 10660 10660 10658 10656 10656 10657 10658 10660 10662 10663 10664 10663 10662 10663 10662 10664 10666 10667 10667 10671
10536 10537 10537 10537 10538 10538 10538 10538 10538 10538 10539 10539 10538 10539 10539 10540 10540 10539 10538 10538 10538 10537 10537 10536 10537 10539 10541 10542 10544 10546 10548 10549 10551 10553 10555 10557 10561 10565 10568 10572 10575 10577 10581 10584 10587 10590 10593 10596 10600 10604 10608 10612 10615 10618 10621 10624 10626 10627 10629 10632 10633 10635 10638 10640 10645 10650 10652 10653 10653 10652 10650 10648 10648 10648 10650 10653 10655 10656 10657 10656 10655 10655 10656 10657 10660 10661 10662 10665
10530 10531 10531 10532 10532 10532 10533 10532 10532 10532 10533 10533 10533 10533 10534 10535 10534 10533 10532 10532 10532 10531 10531 10531 10532 10534 10536 10537 10539 10540 10542 10542 10545 10548 10549 10552 10556 10559 10562 10565 10568 10571 10574 10577 10580 10583 10586 10590 10593 10597 10600 10604 10608 10611 10615 10618 10620 10622 10624 10626 10627 10627 10630 10633 10638 10642 10644 10645 10645 10645 10644 10642 10641 10641 10644 10648 10649 10649 10649 10648 10647 10648 10649 10652 10654 10655 10656 10658
10525 10525 10526 10526 10526 10526 10527 10527 10527 10527 10527 10528 10527 10528 10529 10530 10529 10527 10527 10527 10527 10526 10526 10526 10527 10529 10531 10532 10533 10534 10536 10537 10539 10542 10544 10547 10551 10553 10556 10559 10562 10565 10568 10571 10574 10576 10580 10583 10586 10590 10594 10599 10602 10605 10609 10612 10614 10616 10617 10618 10619 10620 10622 10627 10632 10634 10635 10636 10637 10639 10637 10635 10636 10637 10640 10643 10642 10641 10642 10642 10641 10641 10643 10646 10648 10648 10649 10650
10519 10520 10520 10520 10520 10520 10521 10522 10521 10521 10522 10522 10522 10523 10524 10524 10523 10522 10521 10522 10522 10521 10521 10521 10522 10525 10526 10526 10527 10529 10530 10531 10533 10536 10538 10542 10545 10547 10550 10553 10556 10559 10562 10565 10567 10570 10573 10576 10579 10585 10589 10593 10596 10598 10602 10604 10607 10609 10610 10611 10613 10613 10616 10621 10625 10626 10627 10629 10630 10631 10631 10630 10632 10633 10634 10636 10635 10634 10635 10635 10635 10635 10637 10640 10641 10642 10642 10642
10513 10514 10514 10515 10515 10514 10515 10516 10516 10516 10516 10516 10516 10517 10519 10519 10518 10517 10516 10517 10517 10516 10516 10517 10518 10520 10520 10520 10521 10523 10524 10526 10528 10530 10533 10536 10539 10541 10544 10548 10551 10554 10557 10559 10561 10563 10566 10570 10576 10581 10583 10586 10588 10590 10594 10597 10600 10602 10603 10604 10605 10607 10611 10615 10618 10620 10621 10622 10623 10624 10624 10626 10628 10628 10629 10629 10628 10628 10628 10628 10629 10630 10632 10634 10635 10635 10635 10635
10507 10508 10508 10509 10509 10509 10509 10510 10511 10510 10511 10511 10511 10512 10513 10514 10512 10511 10511 10511 10513 10512 10511 10512 10513 10515 10515 10514 10515 10517 10518 10520 10522 10524 10527 10531 10533 10536 10539 10542 10545 10548 10550 10552 10554 10557 10561 10567 10572 10574 10575 10578 10581 10584 10587 10591 10593 10595 10596 10597 10599 10602 10605 10608 10612 10614 10614 10615 10616 10617 10618 10621 10623 10623 10622 10622 10622 10622 10621 10622 10623 10625 10626 10627 10628 10628 10627 10629
10501 10502 10502 10503 10503 10503 10503 10504 10505 10505 10505 10505 10505 10506 10508 10508 10507 10506 10506 10506 10508 10507 10505 10507 10509 10509 10509 10508 10510 10512 10514 10516 10517 10519 10522 10525 10528 10531 10534 10537 10540 10542 10544 10546 10549 10552 10558 10563 10565 10566 10569 10572 10576 10578 10581 10584 10586 10588 10590 10591 10593 10596 10599 10603 10607 10608 10608 10609 10609 10610 10613 10616 10617 10617 10616 10616 10616 10616 10616 10616 10618 10619 10620 10620 10621 10621 10621 10623
10495 10496 10497 10497 10498 10498 10497 10498 10499 10499 10500 10500 10499 10500 10502 10503 10501 10500 10500 10500 10502 10503 10500 10502 10505 10504 10503 10503 10505 10508 10509 10510 10512 10514 10517 10520 10523 10526 10529 10532 10534 10536 10538 10541 10545 10549 10554 10556 10557 10560 10564 10566 10569 10572 10575 10578 10580 10582 10583 10584 10588 10591 10594 10598 10601 10601 10602 10603 10603 10605 10608 10609 10610 10610 10610 10610 10610 10610 10610 10611 10611 10612 10613 10613 10613 10615 10616 10617
10490 10490 10491 10491 10492 10492 10491 10491 10492 10493 10494 10494 10493 10494 10496 10497 10495 10494 10495 10494 10496 10498 10496 10497 10499 10499 10498 10499 10500 10502 10503 10505 10507 10510 10512 10516 10518 10521 10524 10526 10528 10531 10533 10537 10540 10544 10547 10549 10552 10556 10558 10561 10563 10566 10569 10571 10574 10575 10577 10579 10583 10586 10589 10593 10595 10595 10597 10597 10597 10600 10603 10603 10604 10604 10604 10604 10604 10604 10605 10605 10606 10606 10606 10606 10607 10609 10611 10612
10484 10484 10484 10485 10485 10485 10485 10485 10486 10487 10488 10488 10488 10488 10490 10491 10490 10489 10490 10489 10490 10493 10492 10492 10494 10494 10494 10493 10495 10498 10499 10501 10503 10505 10508 10511 10513 10516 10518 10520 10523 10526 10529 10532 10535 10538 10541 10543 10547 10550 10553 10555 10558 10560 10563 10566 10568 10570 10572 10575 10578 10581 10584 10587 10589 10590 10591 10592 10593 10595 10596 10597 10598 10598 10597 10598 10598 10599 10599 10599 10600 10601 10601 10601 10603 10604 10606 10607
10477 10478 10478 10478 10479 10479 10479 10479 10480 10481 10481 10482 10482 10482 10484 10486 10485 10484 10484 10484 10484 10487 10487 10487 10488 10489 10489 10488 10490 10493 10495 10496 10498 10500 10503 10506 10508 10510 10512 10514 10517 10521 10524 10527 10530 10533 10536 10539 10542 10545 10547 10550 10552 10555 10558 10560 10562 10564 10567 10570 10573 10575 10579 10581 10583 10584 10585 10587 10587 10588 10591 10591 10590 10591 10590 10592 10594 10595 10597 10596 10595 10596 10596 10596 10598 10599 10601 10602
10471 10471 10471 10471 10472 10472 10471 10473 10474 10474 10474 10475 10476 10477 10478 10481 10480 10479 10479 10479 10478 10480 10482 10482 10483 10484 10484 10484 10486 10488 10490 10492 10493 10496 10499 10500 10502 10504 10506 10509 10513 10516 10519 10521 10525 10528 10530 10533 10536 10538 10541 10543 10546 10549 10552 10554 10557 10559 10562 10564 10567 10570 10573 10575 10577 10578 10579 10582 10582 10582 10586 10585 10583 10584 10584 10586 10589 10592 10594 10594 10591 10591 10591 10592 10593 10595 10596 10597
10465 10464 10464 10464 10465 10465 10465 10466 10468 10467 10466 10468 10471 10471 10472 10475 10475 10474 10474 10471 10471 10474 10477 10478 10478 10478 10479 10479 10481 10484 10486 10487 10488 10491 10494 10494 10496 10498 10501 10505 10508 10511 10513 10516 10520 10522 10524 10527 10529 10532 10534 10537 10540 10543 10546 10549 10551 10554 10556 10558 10561 10564 10567 10569 10571 10572 10574 10577 10577 10577 10581 10580 10576 10577 10578 10580 10583 10585 10588 10589 10587 10587 10588 10588 10588 10590 10591 10592
10458 10457 10457 10457 10457 10458 10458 10460 10460 10460 10460 10462 10464 10465 10467 10469 10470 10471 10468 10462 10463 10469 10471 10473 10473 10473 10474 10475 10477 10479 10481 10482 10483 10486 10489 10489 10491 10493 10496 10500 10503 10504 10507 10510 10514 10516 10518 10521 10523 10525 10529 10531 10535 10538 10541 10544 10546 10549 10551 10553 10556 10559 10561 10564 10565 10567 10570 10571 10571 10572 10576 10575 10571 10570 10573 10575 10576 10578 10580 10581 10582 10582 10583 10583 10583 10584 10586 10587
10450 10450 10451 10449 10449 10451 10452 10453 10452 10452 10454 10456 10457 10460 10461 10463 10466 10466 10458 10453 10458 10464 10465 10467 10468 10468 10469 10470 10472 10475 10476 10477 10479 10481 10484 10484 10486 10488 10491 10494 10497 10499 10501 10504 10508 10511 10513 10515 10517 10520 10524 10527 10530 10533 10536 10539 10541 10544 10546 10548 10551 10554 10556 10559 10560 10563 10565 10564 10565 10568 10571 10570 10566 10565 10569 10570 10570 10572 10573 10574 10575 10576 10577 10578 10578 10579 10580 10581
10443 10443 10444 10442 10441 10442 10445 10446 10445 10445 10446 10448 10451 10453 10454 10458 10461 10456 10447 10446 10454 10458 10459 10461 10462 10463 10464 10465 10467 10470 10472 10473 10474 10476 10479 10480 10481 10484 10487 10490 10492 10494 10496 10499 10504 10507 10509 10511 10513 10516 10519 10522 10524 10527 10530 10533 10535 10537 10541 10544 10547 10549 10552 10554 10556 10558 10558 10558 10560 10563 10565 10566 10562 10561 10564 10565 10565 10566 10567 10568 10570 10571 10572 10573 10573 10574 10575 10576
10436 10436 10436 10436 10434 10434 10436 10437 10437 10437 10438 10440 10444 10447 10449 10454 10453 10443 10438 10441 10448 10452 10454 10455 10457 10458 10459 10461 10463 10465 10467 10468 10470 10472 10474 10476 10477 10480 10482 10485 10487 10488 10490 10494 10498 10502 10504 10505 10507 10510 10513 10516 10518 10521 10524 10526 10529 10532 10536 10539 10541 10544 10546 10548 10550 10552 10552 10552 10555 10558 10561 10561 10558 10556 10558 10559 10560 10561 10561 10563 10565 10566 10567 10567 10568 10569 10570 10572
10428 10428 10428 10428 10427 10427 10427 10428 10430 10430 10430 10432 10436 10440 10445 10446 10441 10432 10431 10436 10442 10447 10449 10449 10451 10453 10454 10456 10458 10460 10462 10464 10465 10467 10469 10471 10473 10475 10477 10479 10481 10483 10485 10489 10492 10496 10498 10499 10501 10504 10507 10509 10512 10515 10519 10521 10523 10526 10530 10533 10535 10537 10539 10541 10544 10545 10546 10547 10550 10553 10555 10555 10552 10551 10553 10554 10555 10556 10557 10558 10559 10560 10561 10562 10564 10565 10566 10568
10420 10420 10420 10420 10420 10419 10419 10420 10421 10422 10423 10424 10428 10434 10437 10434 10429 10425 10426 10431 10437 10441 10442 10442 10445 10447 10449 10451 10454 10455 10457 10458 10460 10462 10464 10466 10468 10470 10473 10475 10477 10479 10481 10484 10486 10489 10492 10493 10495 10499 10502 10505 10508 10511 10514 10516 10517 10520 10525 10527 10528 10530 10533 10536 10538 10539 10540 10542 10544 10547 10549 10549 10547 10546 10547 10549 10550 10551 10552 10553 10554 10555 10556 10557 10559 10560 10562 10563
10412 10411 10411 10411 10411 10411 10411 10411 10412 10413 10414 10416 10420 10426 10426 10422 10421 10420 10421 10424 10430 10434 10435 10437 10440 10442 10444 10446 10448 10450 10452 10453 10456 10458 10460 10462 10463 10465 10468 10470 10472 10475 10477 10478 10480 10483 10486 10487 10490 10494 10497 10500 10502 10505 10508 10510 10512 10516 10519 10519 10521 10524 10528 10530 10532 10533 10534 10536 10538 10540 10542 10543 10541 10540 10542 10544 10544 10546 10547 10547 10548 10549 10551 10552 10554 10556 10557 10559
10403 10403 10402 10402 10402 10402 10401 10401 10403 10404 10405 10409 10413 10416 10414 10413 10413 10414 10414 10417 10422 10426 10429 10431 10435 10437 10438 10440 10442 10445 10447 10448 10451 10453 10455 10457 10458 10460 10462 10464 10467 10469 10472 10474 10475 10478 10480 10481 10485 10489 10491 10493 10496 10499 10502 10505 10507 10509 10511 10512 10515 10519 10522 10523 10525 10527 10528 10529 10531 10533 10535 10536 10536 10535 10537 10538 10539 10540 10541 10542 10543 10544 10546 10548 10549 10551 10553 10554
10393 10393 10393 10393 10393 10392 10391 10392 10394 10395 10397 10401 10403 10404 10404 10403 10404 10406 10408 10410 10414 10419 10422 10426 10430 10432 10433 10434 10436 10439 10441 10443 10446 10448 10449 10452 10454 10455 10457 10459 10462 10464 10467 10469 10471 10474 10475 10476 10479 10483 10485 10488 10490 10493 10496 10499 10501 10502 10504 10507 10509 10513 10515 10516 10519 10521 10521 10522 10525 10527 10528 10530 10529 10529 10531 10532 10534 10535 10536 10537 10538 10539 10541 10543 10545 10546 10548 10549
10384 10383 10382 10382 10383 10383 10382 10382 10384 10386 10389 10392 10392 10394 10394 10393 10395 10399 10402 10404 10407 10412 10417 10421 10424 10426 10427 10429 10430 10433 10436 10439 10441 10442 10444 10447 10449 10450 10452 10454 10457 10459 10462 10464 10466 10469 10471 10472 10474 10477 10480 10482 10485 10488 10490 10492 10494 10496 10499 10501 10504 10506 10507 10509 10512 10515 10515 10517 10519 10520 10522 10523 10522 10523 10525 10526 10528 10529 10531 10533 10533 10534 10536 10538 10539 10541 10542 10544
10374 10374 10373 10372 10372 10374 10374 10374 10374 10376 10379 10381 10383 10385 10385 10385 10387 10391 10395 10398 10401 10405 10411 10415 10417 10420 10422 10423 10425 10428 10430 10433 10436 10437 10439 10441 10443 10445 10447 10449 10451 10454 10456 10459 10461 10464 10466 10468 10469 10472 10475 10477 10480 10482 10484 10486 10488 10491 10493 10495 10497 10499 10501 10503 10506 10508 10509 10511 10512 10514 10516 10515 10515 10516 10519 10520 10522 10523 10525 10528 10528 10529 10531 10533 10534 10535 10537 10539
10364 10364 10363 10363 10362 10363 10364 10364 10364 10366 10369 10371 10373 10375 10376 10377 10379 10383 10388 10391 10394 10399 10404 10407 10411 10414 10415 10417 10420 10422 10424 10427 10430 10432 10433 10435 10437 10439 10441 10443 10446 10448 10450 10454 10456 10458 10461 10462 10463 10467 10470 10472 10475 10476 10478 10480 10482 10484 10487 10489 10491 10494 10496 10498 10500 10501 10502 10504 10506 10508 10508 10509 10509 10510 10513 10514 10515 10517 10520 10522 10523 10523 10525 10527 10528 10529 10531 10533
10354 10354 10354 10354 10353 10353 10353 10353 10354 10356 10358 10361 10363 10365 10367 10368 10370 10375 10381 10384 10388 10392 10396 10400 10404 10407 10409 10411 10413 10416 10418 10421 10424 10426 10427 10429 10431 10434 10436 10438 10440 10442 10445 10448 10450 10452 10455 10457 10459 10463 10465 10467 10469 10470 10472 10474 10476 10478 10481 10483 10485 10488 10490 10492 10494 10495 10496 10498 10500 10501 10501 10503 10503 10503 10505 10507 10509 10511 10513 10515 10516 10517 10518 10520 10522 10523 10524 10527
10347 10345 10345 10346 10345 10344 10343 10343 10343 10345 10347 10350 10352 10354 10357 10360 10362 10366 10372 10377 10381 10385 10388 10392 10396 10399 10402 10404 10406 10409 10412 10414 10417 10420 10421 10423 10426 10428 10431 10433 10435 10437 10439 10442 10444 10447 10449 10451 10454 10457 10459 10461 10463 10464 10467 10469 10470 10472 10475 10476 10478 10481 10483 10485 10487 10489 10490 10493 10495 10494 10495 10496 10496 10496 10499 10500 10502 10504 10506 10508 10509 10510 10511 10513 10515 10516 10518 10521
10340 10338 10338 10337 10336 10335 10334 10334 10334 10336 10338 10339 10342 10345 10347 10350 10353 10357 10364 10370 10374 10377 10381 10384 10388 10391 10394 10397 10399 10402 10406 10408 10411 10414 10416 10418 10421 10424 10426 10428 10430 10432 10434 10436 10439 10441 10443 10445 10447 10451 10453 10455 10456 10458 10460 10462 10463 10465 10467 10469 10471 10475 10477 10479 10482 10483 10484 10487 10488 10488 10489 10489 10489 10491 10493 10494 10496 10498 10499 10501 10502 10503 10505 10506 10507 10509 10512 10514
10335 10333 10331 10330 10328 10327 10327 10326 10327 10328 10329 10331 10333 10336 10339 10342 10345 10349 10355 10362 10366 10370 10373 10377 10380 10383 10387 10390 10393 10396 10399 10402 10404 10408 10411 10413 10416 10419 10420 10422 10425 10427 10429 10431 10433 10435 10437 10439 10441 10444 10447 10447 10449 10452 10453 10455 10457 10459 10462 10464 10466 10469 10471 10474 10476 10476 10478 10480 10481 10482 10483 10483 10483 10485 10487 10488 10490 10491 10493 10495 10496 10497 10499 10500 10500 10502 10505 10507
10330 10328 10326 10323 10321 10320 10320 10320 10320 10320 10322 10323 10325 10328 10331 10333 10336 10341 10347 10353 10358 10362 10366 10369 10372 10376 10379 10383 10386 10389 10392 10395 10398 10402 10405 10408 10411 10413 10415 10417 10419 10422 10424 10426 10428 10429 10431 10433 10435 10437 10439 10441 10443 10446 10447 10449 10451 10454 10457 10458 10460 10462 10464 10467 10469 10470 10472 10474 10475 10475 10477 10477 10478 10479 10481 10482 10484 10485 10487 10488 10489 10491 10493 10493 10494 10495 10497 10500
10325 10323 10321 10318 10316 10314 10314 10314 10314 10314 10316 10317 10318 10321 10324 10326 10329 10334 10339 10345 10350 10354 10358 10362 10365 10368 10372 10376 10379 10383 10386 10389 10393 10396 10399 10402 10405 10407 10410 10412 10414 10416 10418 10420 10422 10423 10424 10426 10428 10430 10433 10435 10437 10439 10441 10443 10445 10447 10450 10451 10453 10455 10457 10460 10462 10463 10466 10467 10468 10469 10470 10471 10472 10473 10474 10475 10477 10478 10480 10481 10482 10484 10485 10486 10487 10488 10490 10493
10321 10318 10316 10314 10311 10309 10308 10308 10308 10309 10310 10311 10312 10315 10317 10320 10324 10328 10332 10337 10342 10347 10351 10355 10358 10361 10365 10369 10373 10377 10380 10384 10387 10390 10393 10396 10398 10401 10404 10406 10408 10410 10411 10413 10415 10416 10418 10420 10422 10424 10425 10427 10429 10431 10434 10436 10438 10440 10442 10444 10445 10447 10449 10452 10455 10457 10459 10460 10462 10463 10463 10464 10466 10467 10467 10469 10470 10471 10473 10474 10475 10476 10477 10479 10480 10482 10484 10486
10317 10314 10312 10310 10307 10305 10304 10303 10303 10304 10304 10305 10307 10309 10311 10314 10318 10322 10326 10331 10336 10340 10344 10347 10351 10355 10359 10363 10367 10370 10374 10378 10381 10384 10387 10390 10392 10395 10398 10400 10402 10403 10405 10407 10409 10410 10412 10414 10416 10417 10419 10420 10422 10424 10426 10429 10431 10433 10434 10437 10438 10440 10442 10445 10448 10450 10452 10453 10455 10456 10457 10458 10459 10459 10460 10461 10463 10464 10466 10467 10468 10469 10470 10472 10474 10476 10478 10480
10315 10312 10309 10306 10304 10302 10301 10299 10299 10299 10300 10301 10302 10304 10307 10309 10313 10316 10320 10325 10329 10333 10337 10340 10344 10348 10352 10356 10360 10364 10368 10372 10375 10378 10381 10383 10386 10389 10391 10393 10395 10397 10399 10402 10403 10404 10406 10408 10409 10411 10412 10414 10416 10418 10420 10422 10424 10426 10428 10431 10432 10433 10435 10438 10441 10443 10444 10446 10447 10448 10449 10450 10451 10452 10453 10454 10456 10457 10459 10461 10462 10463 10464 10466 10468 10470 10471 10473
10312 10309 10307 10304 10302 10300 10298 10297 10296 10296 10296 10297 10299 10300 10303 10305 10308 10312 10315 10319 10323 10327 10330 10334 10338 10341 10345 10350 10353 10357 10361 10365 10368 10371 10374 10377 10380 10383 10385 10387 10389 10391 10394 10396 10397 10398 10399 10401 10403 10404 10406 10408 10410 10412 10414 10415 10417 10421 10422 10423 10425 10427 10429 10432 10434 10436 10437 10438 10440 10441 10442 10443 10444 10446 10447 10448 10449 10451 10452 10454 10455 10457 10458 10460 10462 10464 10465 10465